Regional Weather Roundup
Issued by NWS

Home | Current Version | Previous Version | Text Only | Print | Product List | Glossary Off
Versions: 1 2 3 4 5 6 7 8 9 10 11 12 13 14 15 16 17 18 19 20 21 22 23 24 25 26 27 28 29 30 31 32 33 34 35 36 37 38 39 40 41 42 43 44 45 46 47 48 49 50

000
ASUS43 KFSD 130902
RWRSD

WEATHER ROUNDUP FOR SOUTH DAKOTA
NATIONAL WEATHER SERVICE SIOUX FALLS SD
300 AM CST SAT FEB 13 2016

NOTE: "FAIR" INDICATES FEW OR NO CLOUDS BELOW 12,000 FEET WITH NO
SIGNIFICANT WEATHER AND/OR OBSTRUCTIONS TO VISIBILITY.


SDZ001>005-009-010-012>017-131000-
NORTHWEST AND NORTH CENTRAL SOUTH DAKOTA

CITY           SKY/WX    TMP DP  RH WIND       PRES   REMARKS
BUFFALO          N/A     20  17  88 SE20      30.07F WCI   4
FAITH            N/A     13   8  81 SE21G29   30.24F WCI  -5
MOBRIDGE       FLURRIES   7   1  76 SE14      30.39F WCI -10
$$

SDZ012>016-024>037-041>051-057-063-072>074-131000-
SOUTHWEST AND SOUTH CENTRAL SOUTH DAKOTA

CITY           SKY/WX    TMP DP  RH WIND       PRES   REMARKS
RAPID CTY ARPT CLOUDY    27  23  85 SE14      30.13F WCI  16
PIERRE         CLOUDY    11   6  81 SE18      30.42F WCI  -7
CUSTER         CLOUDY    23  20  88 W3        30.07F
ELLSWORTH AFB  CLOUDY    26  25  94 SE14      30.11F WCI  15
PHILIP         CLOUDY    21  16  81 E18       30.27F WCI   6
PINE RIDGE     CLOUDY    33  29  85 S13G23    30.17F WCI  24
WINNER         CLOUDY    17  10  74 SE17      30.41F WCI   1
$$

SDZ004>011-016>023-039-040-131000-
NORTHEAST SOUTH DAKOTA

CITY           SKY/WX    TMP DP  RH WIND       PRES   REMARKS
ABERDEEN       CLOUDY     1  -7  68 SE6       30.58F WCI -10
WATERTOWN      CLOUDY    -5 -14  65 CALM      30.52F
BROOKINGS      CLOUDY    -6 -11  79 CALM      30.56F
SISSETON         N/A     -9 -14  78 CALM      30.61F
$$

SDZ017-020-022-023-036>040-048>070-131000-
SOUTHEAST SOUTH DAKOTA

CITY           SKY/WX    TMP DP  RH WIND       PRES   REMARKS
SIOUX FALLS    CLOUDY     0  -7  72 NE6       30.58F WCI -12
HURON          CLOUDY     3  -7  63 SE9       30.58F WCI -12
MITCHELL       CLOUDY     6  -2  69 E10       30.57F WCI  -9
YANKTON        CLOUDY     7  -4  61 E6        30.59F WCI  -3
$$

ABBREVIATIONS USED IN REMARKS
   TC - TEMPERATURE IN CELSIUS
  WCI - WIND CHILL INDEX
   HX - HEAT INDEX
  VSB - VISIBILITY




USA.gov is the U.S. government's official web portal to all federal, state and local government web resources and services.